Home   Weather   Eckernförde   Past weeks

Flag for Germany Past Weather in Eckernförde, Schleswig-Holstein, Germany — Yesterday and Last 2 Weeks

Now
30 °F

Chilly.


Feels Like: 30 °F
Forecast: 33 / 49 °F
Wind: 2 mph from Southwest

Location: Schleswig-Jagel

Current Time: Apr 26, 2017 at 4:32:08 am

Latest Report: Apr 26, 2017 at 3:20 am


Visibility: N/A

Pressure: 29.74 "Hg

Humidity: 100%

Dew Point: 30 °F

Location of EckernfördeLocation

Past Weather in Eckernförde — Graph

°F

Eckernförde Temperature Yesterday

Maximum temperature yesterday: 45 °F (at 3:20 pm)
Minimum temperature yesterday: 28 °F (at 5:20 am)
Average temperature yesterday: 37 °F

High & Low Weather Summary for the Past Weeks

 TemperatureHumidityPressure
High54 °F (Apr 21, 12:00 pm)100% (Apr 18, 2:20 am)30.63 "Hg (Apr 18, 2:20 am)
Low28 °F (Apr 19, 1:20 am)42% (Apr 18, 3:20 pm)29.56 "Hg (Apr 25, 6:20 am)
Average43 °F78%30.00 "Hg
* Reported Apr 11 2:20 am — Apr 26 2:20 am, Eckernförde, Weather by CustomWeather, © 2017

Note: Actual official high and low records may vary slightly from our data, if they occured in-between our weather recording intervals... More about our weather records

Advertising

Eckernförde Weather History for the Previous 24 Hours

Scroll right to see more
 ConditionsComfort  
Time TempWeatherWind HumidityBarometerVisibility
2:20 am
Wed, Apr 26
30 °FChilly.3 mph93%29.74 "HgN/A
1:20 am32 °FChilly.5 mph93%29.74 "HgN/A
12:20 am36 °FChilly.3 mph81%29.74 "HgN/A
11:20 pm
Tue, Apr 25
36 °FChilly.2 mph81%29.71 "HgN/A
10:20 pm37 °FChilly.6 mph75%29.71 "HgN/A
9:20 pm37 °FChilly.7 mph70%29.71 "HgN/A
8:20 pm41 °FQuite cool.13 mph61%29.71 "HgN/A
7:20 pm43 °FQuite cool.21 mph53%29.68 "HgN/A
6:20 pm45 °FQuite cool.22 mph53%29.68 "HgN/A
5:20 pm45 °FQuite cool.25 mph57%29.68 "HgN/A
4:33 pm43 °FScattered clouds.23 mph66%29.68 "HgN/A
4:01 pm45 °FScattered showers. Scattered clouds.20 mph53%29.65 "HgN/A
3:20 pm45 °FScattered showers. Scattered clouds.18 mph57%29.65 "HgN/A
2:20 pm43 °FScattered clouds.13 mph66%29.65 "HgN/A
1:20 pm41 °FScattered clouds.10 mph76%29.62 "HgN/A
12:20 pm39 °FBroken clouds.3 mph81%29.62 "HgN/A
11:40 am37 °FBroken clouds.7 mph87%29.59 "HgN/A
11:20 am36 °FBroken clouds.7 mph87%29.59 "Hg4 mi
10:20 am34 °FPartly sunny.8 mph93%29.59 "Hg4 mi
9:55 am34 °FLight snow. Fog.8 mph93%29.59 "Hg2 mi
9:29 am32 °FSnow. Fog.5 mph100%29.59 "Hg1 mi
9:06 am32 °FSnow. Partly sunny.6 mph100%29.59 "Hg1 mi
8:32 am34 °FSnow. Partly sunny.2 mph87%29.59 "Hg1 mi
8:20 am34 °FSnow. Partly sunny.5 mph87%29.59 "Hg1 mi
8:15 am34 °FSnow. Partly sunny.3 mph87%29.59 "Hg2 mi
7:49 am34 °FLight rain. Broken clouds.2 mph87%29.56 "Hg4 mi
7:20 am32 °FBroken clouds.1 mph93%29.56 "HgN/A
6:20 am30 °FScattered clouds.5 mph93%29.56 "HgN/A
5:20 am28 °FPassing clouds.5 mph93%29.59 "HgN/A
4:20 am30 °FChilly.3 mph93%29.59 "HgN/A
Weather by CustomWeather, © 2017

See weather overviewHow to use our weather pages